Regional Weather Roundup
Issued by NWS Jackson, KY

Home | Current Version | Previous Version | Graphics & Text | Print | Product List | Glossary On
Versions: 1 2 3 4 5 6 7 8 9 10 11 12 13 14 15 16 17 18 19 20 21 22 23 24 25 26 27
000
ASUS43 KJKL 291210
RWRJKL

EAST KENTUCKY HOURLY WEATHER ROUNDUP
NATIONAL WEATHER SERVICE JACKSON KY
800 AM EDT WED MAR 29 2017

NOTE: "FAIR" INDICATES FEW OR NO CLOUDS BELOW 12,000 FEET WITH
NO SIGNIFICANT WEATHER AND/OR OBSTRUCTIONS TO VISIBILITY.

* THESE REPORTS ARE NOT UNDER NWS QUALITY CONTROL AND MAY NOT
  REPORT WEATHER SUCH AS PRECIPITATION AND FOG.

KYZ079-080-083-085-087-088-110-112-115-119-120-291300
...EASTERN KENTUCKY...

CITY           SKY/WX    TMP DP  RH WIND       PRES   REMARKS
JACKSON        CLOUDY    52  49  89 CALM      30.12R
6HR MIN TEMP:  51; 6HR MAX TEMP:  56;

LONDON         CLOUDY    54  50  86 N7        30.09R
6HR MIN TEMP:  54; 6HR MAX TEMP:  56;

SOMERSET*      CLOUDY    54  52  94 N6        30.10S
MONTICELLO*    CLOUDY    55  53  93 NW7       30.11R
6HR MIN TEMP:  49; 6HR MAX TEMP:  55;

WILLIAMSBURG*  CLOUDY    54  54 100 N3        30.09R
MIDDLESBORO*   CLOUDY    48  48 100 CALM      30.10R
6HR MIN TEMP:  46; 6HR MAX TEMP:  51;

HARLAN APT*    CLOUDY    50  48  93 CALM      30.09R
PIKE CO APT*   CLOUDY    51  51 100 N3        30.11R
BIG SANDY APT* CLOUDY    52  51  97 NE6       30.11R
6HR MIN TEMP:  52; 6HR MAX TEMP:  55;

MOREHEAD APT*  CLOUDY    50  45  81 NE5       30.16R
ASHLAND*       CLOUDY    48  43  81 NE5       30.15R
$$

KYZ035-036-041-042-044-050-067-078-099-291300
...CENTRAL KENTUCKY...

CITY           SKY/WX    TMP DP  RH WIND       PRES   REMARKS
MT STERLING*   CLOUDY    46  45  93 NE10      30.15R
FLEMING/MASON* CLOUDY    46  42  89 NE9       30.16S
DANVILLE*      MOCLDY    48  46  93 E3        30.12S
LEXINGTON      MOCLDY    49  45  86 NE13      30.12S
6HR MIN TEMP:  49; 6HR MAX TEMP:  54;

FRANKFORT      CLOUDY    51  44  77 NE8       30.11S
6HR MIN TEMP:  51; 6HR MAX TEMP:  53;

LOUISVILLE     CLOUDY    54  47  77 E10       30.11R
6HR MIN TEMP:  53; 6HR MAX TEMP:  55;

LEBANON*         N/A     48  48 100 NE6       30.10F FOG
GLASGOW*       CLEAR    N/A N/A N/A NE8       30.08R FOG
BOWLING GREEN  CLEAR     51  48  89 NE7       30.07R FOG
6HR MIN TEMP:  50; 6HR MAX TEMP:  57;

$$

KYZ091>093-OHZ055-061-077-WVZ005-015-034-035-042-291300
...SOUTHERN OHIO/WEST VIRGINIA...

CITY           SKY/WX    TMP DP  RH WIND       PRES   REMARKS
COVINGTON      CLOUDY    45  39  79 E13       30.16S
COLUMBUS       CLOUDY    43  40  89 N8        30.20R
DAYTON         CLOUDY    37  34  89 E9        30.20S WCI  30
WILMINGTON     CLOUDY    38  36  92 NE10      30.18S WCI  31
HUNTINGTON     CLOUDY    50  44  80 N8        30.14R
CHARLESTON     CLOUDY    50  43  77 N8        30.13R
PINEVILLE*     CLOUDY    53  50  90 MISG      30.14R FOG
BECKLEY        CLOUDY    48  46  93 N5        30.10S
LOGAN CO APT*  CLOUDY    52  46  82 CALM      30.11R
$$

VAZ002-007-008-TNZ017-027-036-066-071-291300
...SOUTHWEST VIRGINIA/EAST TENNESSEE...

CITY           SKY/WX    TMP DP  RH WIND       PRES   REMARKS
WISE*          CLOUDY    52  52 100 N3        30.11R FOG
JONESVILLE*      N/A     46  46 100 CALM      30.11R
ABINGDON*      PTCLDY    50  50  99 E6        30.08R
BRISTOL        PTCLDY    48  46  93 CALM      30.08R
MORRISTOWN*    SUNNY     54  50  87 NE6       30.06R
SEVIERVILLE*   SUNNY     45  45 100 CALM      30.06R
KNOXVILLE      CLEAR     51  48  89 CALM      30.05R
LAFOLLETTE*    FOG       45  45 100 CALM      30.10R VSB 1
OAK RIDGE      CLEAR     50  47  89 CALM      30.08R
CROSSVILLE     FOG       48  48 100 NE6       30.08R VSB<1/4
NASHVILLE      PTCLDY    53  51  93 E6        30.05R
$$

...KEY TO REMARKS...
VSB - VISIBILITY IN MILES
WCI - WIND CHILL INDEX
HX  - HEAT INDEX

$$




USA.gov is the U.S. government's official web portal to all federal, state and local government web resources and services.